project_name,platform_name,Date_(yyyymmdd),Time_(hh24miss),beacon_ID,latitude_DD,longitude_DD,altitude_m,altitude_result_value_type,speed_m_s,speed_result_value_type,direction_degrees,direction_result_value_type,fix,sat
BaySys,Amundsen,2008-07-05,16:09:08,300034012815320,74.9004,-120.6786,20.1504,Actual,,Calculated,16.1100,Calculated,1,5
BaySys,Amundsen,2008-07-05,18:07:31,300034012815320,75.6728,-122.7961,-7.2021,Actual,,Calculated,168.6400,Calculated,1,5
BaySys,Amundsen,2008-07-05,20:08:05,300034012815320,75.6645,-122.7898,-3.0506,Actual,,Calculated,151.4800,Calculated,1,11
BaySys,Amundsen,2008-07-05,22:07:33,300034012815320,75.6562,-122.7845,1.5770,Actual,,Calculated,169.7100,Calculated,1,10
BaySys,Amundsen,2008-07-06,00:08:05,300034012815320,75.6481,-122.7868,-10.5166,Actual,,Calculated,56.0100,Calculated,1,9
BaySys,Amundsen,2008-07-06,02:08:00,300034012815320,75.6404,-122.7967,-1.7207,Actual,,Calculated,200.1800,Calculated,1,5
BaySys,Amundsen,2008-07-06,04:07:44,300034012815320,75.6325,-122.8061,-13.8219,Actual,,Calculated,179.4800,Calculated,1,7
BaySys,Amundsen,2008-07-06,06:08:29,300034012815320,75.6235,-122.8065,-14.3795,Actual,,Calculated,165.8300,Calculated,1,10
BaySys,Amundsen,2008-07-06,08:07:51,300034012815320,75.6144,-122.7973,-10.1284,Actual,,Calculated,194.0600,Calculated,1,10
BaySys,Amundsen,2008-07-06,10:08:23,300034012815320,75.6060,-122.7876,-25.1036,Actual,,Calculated,144.6000,Calculated,1,13
BaySys,Amundsen,2008-07-06,12:07:58,300034012815320,75.5994,-122.7886,-5.0468,Actual,,Calculated,190.4500,Calculated,1,9
BaySys,Amundsen,2008-07-06,14:08:35,300034012815320,75.5942,-122.8040,-1.5353,Actual,,Calculated,231.3100,Calculated,1,8
BaySys,Amundsen,2008-07-06,16:08:29,300034012815320,75.5897,-122.8245,-5.5119,Actual,,Calculated,221.8100,Calculated,1,9
BaySys,Amundsen,2008-07-06,18:08:05,300034012815320,75.5849,-122.8354,-3.3361,Actual,,Calculated,144.3600,Calculated,1,9
BaySys,Amundsen,2008-07-06,20:08:35,300034012815320,75.5793,-122.8305,3.3135,Actual,,Calculated,67.0900,Calculated,1,8
BaySys,Amundsen,2008-07-06,22:08:20,300034012815320,75.5731,-122.8174,-12.9135,Actual,,Calculated,159.5800,Calculated,1,11
BaySys,Amundsen,2008-07-07,00:08:10,300034012815320,75.5666,-122.8102,-4.1412,Actual,,Calculated,238.1100,Calculated,1,11
BaySys,Amundsen,2008-07-07,02:08:35,300034012815320,75.5600,-122.8161,4.1433,Actual,,Calculated,183.3300,Calculated,1,9
BaySys,Amundsen,2008-07-07,04:08:13,300034012815320,75.5534,-122.8280,-5.4756,Actual,,Calculated,209.1500,Calculated,1,9
BaySys,Amundsen,2008-07-07,06:08:35,300034012815320,75.5460,-122.8341,8.5392,Actual,,Calculated,197.0300,Calculated,1,10
BaySys,Amundsen,2008-07-07,08:08:17,300034012815320,75.5379,-122.8278,-1.3903,Actual,,Calculated,163.8500,Calculated,1,10
BaySys,Amundsen,2008-07-07,10:08:24,300034012815320,75.5293,-122.8165,-10.5771,Actual,,Calculated,142.7400,Calculated,1,11
BaySys,Amundsen,2008-07-07,12:08:59,300034012815320,75.5216,-122.8145,0.8956,Actual,,Calculated,62.2000,Calculated,1,12
BaySys,Amundsen,2008-07-07,14:08:59,300034012815320,75.5148,-122.8293,-1.2783,Actual,,Calculated,31.2400,Calculated,1,9
BaySys,Amundsen,2008-07-07,16:08:59,300034012815320,75.5083,-122.8549,-13.4482,Actual,,Calculated,225.7300,Calculated,1,9
BaySys,Amundsen,2008-07-07,18:08:30,300034012815320,75.5023,-122.8769,-5.0020,Actual,,Calculated,202.6600,Calculated,1,12
BaySys,Amundsen,2008-07-07,20:09:05,300034012815320,75.4959,-122.8852,-0.1676,Actual,,Calculated,201.9000,Calculated,1,12
BaySys,Amundsen,2008-07-07,22:08:40,300034012815320,75.4889,-122.8822,-14.2279,Actual,,Calculated,137.0400,Calculated,1,12
BaySys,Amundsen,2008-07-08,00:08:38,300034012815320,75.4808,-122.8794,-6.2544,Actual,,Calculated,192.7500,Calculated,1,9
BaySys,Amundsen,2008-07-08,02:09:05,300034012815320,75.4718,-122.8890,-3.9622,Actual,,Calculated,200.8600,Calculated,1,6
BaySys,Amundsen,2008-07-08,04:08:40,300034012815320,75.4629,-122.9078,-10.9577,Actual,,Calculated,190.1600,Calculated,1,6
BaySys,Amundsen,2008-07-08,06:08:49,300034012815320,75.4542,-122.9248,-6.2599,Actual,,Calculated,243.4400,Calculated,1,6
BaySys,Amundsen,2008-07-08,08:08:46,300034012815320,75.4455,-122.9311,1.7002,Actual,,Calculated,158.3700,Calculated,1,6
BaySys,Amundsen,2008-07-08,10:09:23,300034012815320,75.4365,-122.9305,-13.0297,Actual,,Calculated,213.7500,Calculated,1,9
BaySys,Amundsen,2008-07-08,12:09:23,300034012815320,75.4281,-122.9382,4.1631,Actual,,Calculated,234.1200,Calculated,1,10
BaySys,Amundsen,2008-07-08,14:09:23,300034012815320,75.4222,-122.9645,5.6313,Actual,,Calculated,247.4400,Calculated,1,6
BaySys,Amundsen,2008-07-08,16:09:23,300034012815320,75.4193,-123.0022,-4.2259,Actual,,Calculated,71.2300,Calculated,1,7
BaySys,Amundsen,2008-07-08,18:09:23,300034012815320,75.4179,-123.0313,-11.9466,Actual,,Calculated,135.6600,Calculated,1,8
BaySys,Amundsen,2008-07-08,20:09:23,300034012815320,75.4152,-123.0422,3.4904,Actual,,Calculated,9.7000,Calculated,1,8
BaySys,Amundsen,2008-07-08,22:08:54,300034012815320,75.4102,-123.0413,-7.5035,Actual,,Calculated,219.5200,Calculated,1,10
BaySys,Amundsen,2008-07-09,00:09:29,300034012815320,75.4032,-123.0429,-0.9481,Actual,,Calculated,145.6300,Calculated,1,11
BaySys,Amundsen,2008-07-09,02:09:04,300034012815320,75.3962,-123.0570,-3.5084,Actual,,Calculated,216.0200,Calculated,1,8
BaySys,Amundsen,2008-07-09,04:08:59,300034012815320,75.3896,-123.0810,1.1978,Actual,,Calculated,148.5700,Calculated,1,8
BaySys,Amundsen,2008-07-09,06:09:03,300034012815320,75.3831,-123.1048,-9.2124,Actual,,Calculated,191.4000,Calculated,1,6
BaySys,Amundsen,2008-07-09,08:09:02,300034012815320,75.3757,-123.1171,14.5408,Actual,,Calculated,175.5100,Calculated,1,7
BaySys,Amundsen,2008-07-09,10:09:05,300034012815320,75.3665,-123.1177,-6.2508,Actual,,Calculated,169.3800,Calculated,1,9
BaySys,Amundsen,2008-07-09,12:09:03,300034012815320,75.3564,-123.1186,10.8949,Actual,,Calculated,171.0100,Calculated,1,7
BaySys,Amundsen,2008-07-09,14:09:10,300034012815320,75.3472,-123.1334,-1.1633,Actual,,Calculated,172.5100,Calculated,1,6
BaySys,Amundsen,2008-07-09,16:09:10,300034012815320,75.3398,-123.1614,17.0702,Actual,,Calculated,258.3400,Calculated,1,8
BaySys,Amundsen,2008-07-09,18:09:03,300034012815320,75.3335,-123.1919,-8.6148,Actual,,Calculated,265.3500,Calculated,1,10
BaySys,Amundsen,2008-07-09,20:09:18,300034012815320,75.3276,-123.2126,-6.5866,Actual,,Calculated,203.0000,Calculated,1,8
BaySys,Amundsen,2008-07-09,22:09:11,300034012815320,75.3211,-123.2192,-4.2678,Actual,,Calculated,134.7800,Calculated,1,11
BaySys,Amundsen,2008-07-10,00:09:53,300034012815320,75.3132,-123.2214,-9.3383,Actual,,Calculated,183.3700,Calculated,1,12
BaySys,Amundsen,2008-07-10,02:09:11,300034012815320,75.3047,-123.2316,-2.6319,Actual,,Calculated,182.4900,Calculated,1,5
BaySys,Amundsen,2008-07-10,04:09:18,300034012815320,75.2968,-123.2552,-5.5992,Actual,,Calculated,215.7000,Calculated,1,7
BaySys,Amundsen,2008-07-10,06:09:23,300034012815320,75.2901,-123.2837,-19.1481,Actual,,Calculated,184.4600,Calculated,1,8
BaySys,Amundsen,2008-07-10,08:09:20,300034012815320,75.2837,-123.3053,-1.4457,Actual,,Calculated,26.2600,Calculated,1,7
BaySys,Amundsen,2008-07-10,10:09:15,300034012815320,75.2769,-123.3159,-11.8090,Actual,,Calculated,254.4200,Calculated,1,7
BaySys,Amundsen,2008-07-10,12:09:53,300034012815320,75.2687,-123.3226,0.1911,Actual,,Calculated,250.1900,Calculated,1,9
BaySys,Amundsen,2008-07-10,14:09:59,300034012815320,75.2602,-123.3411,-1.2094,Actual,,Calculated,33.8300,Calculated,1,6
BaySys,Amundsen,2008-07-10,16:09:35,300034012815320,75.2533,-123.3743,-10.3099,Actual,,Calculated,240.1100,Calculated,1,8
BaySys,Amundsen,2008-07-10,18:09:26,300034012815320,75.2491,-123.4121,6.9533,Actual,,Calculated,280.8800,Calculated,1,7
BaySys,Amundsen,2008-07-10,20:09:25,300034012815320,75.2459,-123.4389,-5.9431,Actual,,Calculated,248.8100,Calculated,1,8
BaySys,Amundsen,2008-07-10,22:09:28,300034012815320,75.2415,-123.4522,-7.0160,Actual,,Calculated,135.5700,Calculated,1,9
BaySys,Amundsen,2008-07-11,00:09:30,300034012815320,75.2350,-123.4608,9.5995,Actual,,Calculated,204.6700,Calculated,1,8
BaySys,Amundsen,2008-07-11,02:09:29,300034012815320,75.2280,-123.4759,-3.4035,Actual,,Calculated,191.0400,Calculated,1,6
BaySys,Amundsen,2008-07-11,04:09:28,300034012815320,75.2220,-123.5006,-1.7373,Actual,,Calculated,255.3300,Calculated,1,7
BaySys,Amundsen,2008-07-11,06:09:31,300034012815320,75.2170,-123.5307,4.2282,Actual,,Calculated,250.9500,Calculated,1,8
BaySys,Amundsen,2008-07-11,08:09:33,300034012815320,75.2125,-123.5568,-4.0916,Actual,,Calculated,271.7700,Calculated,1,9
BaySys,Amundsen,2008-07-11,10:09:31,300034012815320,75.2075,-123.5744,-7.5384,Actual,,Calculated,231.0100,Calculated,1,7
BaySys,Amundsen,2008-07-11,12:10:05,300034012815320,75.2019,-123.5865,3.4875,Actual,,Calculated,172.8100,Calculated,1,8
BaySys,Amundsen,2008-07-11,14:10:05,300034012815320,75.1953,-123.6021,0.7505,Actual,,Calculated,209.4900,Calculated,1,6
BaySys,Amundsen,2008-07-11,16:10:05,300034012815320,75.1884,-123.6285,-3.6967,Actual,,Calculated,79.1400,Calculated,1,7
BaySys,Amundsen,2008-07-11,18:10:05,300034012815320,75.1825,-123.6624,5.4310,Actual,,Calculated,229.1400,Calculated,1,9
BaySys,Amundsen,2008-07-11,20:10:05,300034012815320,75.1771,-123.6944,-13.1609,Actual,,Calculated,225.8300,Calculated,1,9
BaySys,Amundsen,2008-07-11,22:10:05,300034012815320,75.1715,-123.7191,-7.2024,Actual,,Calculated,219.4500,Calculated,1,11
BaySys,Amundsen,2008-07-12,00:09:38,300034012815320,75.1657,-123.7373,-5.7079,Actual,,Calculated,245.9600,Calculated,1,12
BaySys,Amundsen,2008-07-12,02:10:05,300034012815320,75.1596,-123.7541,-0.5182,Actual,,Calculated,124.7200,Calculated,1,7
BaySys,Amundsen,2008-07-12,04:09:46,300034012815320,75.1527,-123.7771,0.2826,Actual,,Calculated,203.4900,Calculated,1,6
BaySys,Amundsen,2008-07-12,06:10:18,300034012815320,75.1447,-123.8109,5.7687,Actual,,Calculated,239.2900,Calculated,1,9
BaySys,Amundsen,2008-07-12,08:09:55,300034012815320,75.1361,-123.8562,-26.7011,Actual,,Calculated,236.1800,Calculated,1,8
BaySys,Amundsen,2008-07-12,10:09:56,300034012815320,75.1306,-123.9049,-5.4634,Actual,,Calculated,246.7200,Calculated,1,9
BaySys,Amundsen,2008-07-12,12:10:23,300034012815320,75.1282,-123.9375,7.4553,Actual,,Calculated,60.8300,Calculated,1,9
BaySys,Amundsen,2008-07-12,14:10:35,300034012815320,75.1234,-123.9545,-6.9266,Actual,,Calculated,204.0000,Calculated,1,7
BaySys,Amundsen,2008-07-12,16:10:10,300034012815320,75.1128,-123.9754,-7.2891,Actual,,Calculated,273.4100,Calculated,1,10
BaySys,Amundsen,2008-07-12,18:10:06,300034012815320,75.0996,-124.0171,-11.6055,Actual,,Calculated,230.0700,Calculated,1,10
BaySys,Amundsen,2008-07-12,20:10:10,300034012815320,75.0888,-124.0751,-9.2509,Actual,,Calculated,240.8600,Calculated,1,9
BaySys,Amundsen,2008-07-12,22:10:04,300034012815320,75.0828,-124.1243,-9.3198,Actual,,Calculated,246.2600,Calculated,1,9
BaySys,Amundsen,2008-07-13,00:10:35,300034012815320,75.0789,-124.1513,-14.6947,Actual,,Calculated,54.6400,Calculated,1,10
BaySys,Amundsen,2008-07-13,02:10:11,300034012815320,75.0714,-124.1639,-1.9456,Actual,,Calculated,146.8300,Calculated,1,8
BaySys,Amundsen,2008-07-13,04:10:35,300034012815320,75.0598,-124.1845,-7.8113,Actual,,Calculated,225.8900,Calculated,1,11
BaySys,Amundsen,2008-07-13,06:10:36,300034012815320,75.0482,-124.2259,-3.8150,Actual,,Calculated,189.7400,Calculated,1,8
BaySys,Amundsen,2008-07-13,08:10:08,300034012815320,75.0403,-124.2800,-18.4545,Actual,,Calculated,261.5600,Calculated,1,8
BaySys,Amundsen,2008-07-13,10:10:09,300034012815320,75.0373,-124.3282,-12.7518,Actual,,Calculated,256.9400,Calculated,1,12
BaySys,Amundsen,2008-07-13,12:10:53,300034012815320,75.0351,-124.3541,-4.3461,Actual,,Calculated,222.1100,Calculated,1,10
BaySys,Amundsen,2008-07-13,14:10:17,300034012815320,75.0282,-124.3648,-2.4620,Actual,,Calculated,50.6400,Calculated,1,7
BaySys,Amundsen,2008-07-13,16:11:03,300034012815320,75.0156,-124.3789,-3.3990,Actual,,Calculated,199.2200,Calculated,1,10
BaySys,Amundsen,2008-07-13,18:10:20,300034012815320,74.9995,-124.4155,-1.2290,Actual,,Calculated,212.5400,Calculated,1,10
BaySys,Amundsen,2008-07-13,20:10:24,300034012815320,74.9852,-124.4763,-8.0694,Actual,,Calculated,248.5000,Calculated,1,10
BaySys,Amundsen,2008-07-13,22:10:21,300034012815320,74.9760,-124.5417,-8.8132,Actual,,Calculated,230.2900,Calculated,1,8
BaySys,Amundsen,2008-07-14,00:10:53,300034012815320,74.9711,-124.5928,-16.9545,Actual,,Calculated,78.6200,Calculated,1,12
BaySys,Amundsen,2008-07-14,02:10:59,300034012815320,74.9658,-124.6227,-0.0162,Actual,,Calculated,239.5000,Calculated,1,9
BaySys,Amundsen,2008-07-14,04:10:59,300034012815320,74.9560,-124.6473,-4.3689,Actual,,Calculated,216.9300,Calculated,1,11
BaySys,Amundsen,2008-07-14,06:10:55,300034012815320,74.9440,-124.6852,13.9714,Actual,,Calculated,215.2000,Calculated,1,8
BaySys,Amundsen,2008-07-14,08:10:33,300034012815320,74.9346,-124.7387,-15.5814,Actual,,Calculated,254.0200,Calculated,1,7
BaySys,Amundsen,2008-07-14,10:10:28,300034012815320,74.9300,-124.7936,-3.7804,Actual,,Calculated,266.5000,Calculated,1,7
BaySys,Amundsen,2008-07-14,12:11:05,300034012815320,74.9285,-124.8333,-2.2937,Actual,,Calculated,272.0800,Calculated,1,11
BaySys,Amundsen,2008-07-14,14:10:55,300034012815320,74.9257,-124.8520,0.9956,Actual,,Calculated,210.1600,Calculated,1,9
BaySys,Amundsen,2008-07-14,16:10:49,300034012815320,74.9184,-124.8589,11.1609,Actual,,Calculated,186.8900,Calculated,1,9
BaySys,Amundsen,2008-07-14,18:10:37,300034012815320,74.9071,-124.8700,0.0812,Actual,,Calculated,168.5300,Calculated,1,9
BaySys,Amundsen,2008-07-14,20:10:48,300034012815320,74.8947,-124.8942,-13.4749,Actual,,Calculated,229.7300,Calculated,1,9
BaySys,Amundsen,2008-07-14,22:11:05,300034012815320,74.8843,-124.9295,-9.2624,Actual,,Calculated,228.7500,Calculated,1,11
BaySys,Amundsen,2008-07-15,00:10:58,300034012815320,74.8770,-124.9672,2.4189,Actual,,Calculated,247.6700,Calculated,1,10
BaySys,Amundsen,2008-07-15,02:11:05,300034012815320,74.8721,-124.9964,-1.4021,Actual,,Calculated,233.9000,Calculated,1,9
BaySys,Amundsen,2008-07-15,04:10:53,300034012815320,74.8667,-125.0143,8.9582,Actual,,Calculated,168.5900,Calculated,1,9
BaySys,Amundsen,2008-07-15,06:11:05,300034012815320,74.8580,-125.0328,1.5403,Actual,,Calculated,211.4300,Calculated,1,8
BaySys,Amundsen,2008-07-15,08:11:23,300034012815320,74.8470,-125.0671,-4.6810,Actual,,Calculated,233.6400,Calculated,1,11
BaySys,Amundsen,2008-07-15,10:11:05,300034012815320,74.8379,-125.1172,13.6229,Actual,,Calculated,223.4000,Calculated,1,13
BaySys,Amundsen,2008-07-15,12:11:04,300034012815320,74.8332,-125.1688,-0.7043,Actual,,Calculated,278.2200,Calculated,1,8
BaySys,Amundsen,2008-07-15,14:11:21,300034012815320,74.8316,-125.2050,8.1335,Actual,,Calculated,257.6800,Calculated,1,8
BaySys,Amundsen,2008-07-15,16:11:35,300034012815320,74.8283,-125.2235,-13.9874,Actual,,Calculated,248.7300,Calculated,1,9
BaySys,Amundsen,2008-07-15,18:11:18,300034012815320,74.8204,-125.2399,2.0565,Actual,,Calculated,211.3400,Calculated,1,9
BaySys,Amundsen,2008-07-15,20:11:20,300034012815320,74.8093,-125.2709,-19.8383,Actual,,Calculated,223.0800,Calculated,1,10
BaySys,Amundsen,2008-07-15,22:11:07,300034012815320,74.7996,-125.3175,-10.1905,Actual,,Calculated,223.2400,Calculated,1,9
BaySys,Amundsen,2008-07-16,00:11:35,300034012815320,74.7938,-125.3654,-4.0087,Actual,,Calculated,82.4800,Calculated,1,11
BaySys,Amundsen,2008-07-16,02:11:24,300034012815320,74.7914,-125.4011,-6.7924,Actual,,Calculated,248.8300,Calculated,1,8
BaySys,Amundsen,2008-07-16,04:11:35,300034012815320,74.7895,-125.4210,-3.3163,Actual,,Calculated,130.4100,Calculated,1,7
BaySys,Amundsen,2008-07-16,06:11:24,300034012815320,74.7852,-125.4348,1.5038,Actual,,Calculated,161.1800,Calculated,1,8
BaySys,Amundsen,2008-07-16,08:11:43,300034012815320,74.7793,-125.4504,-8.1314,Actual,,Calculated,257.1200,Calculated,1,11
BaySys,Amundsen,2008-07-16,10:11:29,300034012815320,74.7727,-125.4698,-8.3776,Actual,,Calculated,216.4500,Calculated,1,11
BaySys,Amundsen,2008-07-16,12:11:27,300034012815320,74.7662,-125.4878,-0.9345,Actual,,Calculated,249.4100,Calculated,1,10
BaySys,Amundsen,2008-07-16,14:11:26,300034012815320,74.7593,-125.5024,-1.0027,Actual,,Calculated,198.8700,Calculated,1,9
BaySys,Amundsen,2008-07-16,16:11:59,300034012815320,74.7514,-125.5175,-6.0362,Actual,,Calculated,207.9900,Calculated,1,10
BaySys,Amundsen,2008-07-16,18:11:49,300034012815320,74.7431,-125.5413,0.8683,Actual,,Calculated,210.5800,Calculated,1,11
BaySys,Amundsen,2008-07-16,20:11:35,300034012815320,74.7364,-125.5726,-3.5277,Actual,,Calculated,266.0400,Calculated,1,7
BaySys,Amundsen,2008-07-16,22:12:05,300034012815320,74.7330,-125.6012,-16.1296,Actual,,Calculated,83.9400,Calculated,1,11
BaySys,Amundsen,2008-07-17,00:11:33,300034012815320,74.7316,-125.6082,-0.3944,Actual,,Calculated,49.9900,Calculated,1,11
BaySys,Amundsen,2008-07-17,02:12:04,300034012815320,74.7272,-125.5916,-6.9714,Actual,,Calculated,137.6600,Calculated,1,8
BaySys,Amundsen,2008-07-17,04:12:05,300034012815320,74.7145,-125.5651,12.0015,Actual,,Calculated,164.1100,Calculated,1,9
BaySys,Amundsen,2008-07-17,06:12:05,300034012815320,74.6962,-125.5668,-6.4166,Actual,,Calculated,176.5900,Calculated,1,9
BaySys,Amundsen,2008-07-17,08:12:05,300034012815320,74.6806,-125.6073,-6.7543,Actual,,Calculated,193.1700,Calculated,1,8
BaySys,Amundsen,2008-07-17,10:12:05,300034012815320,74.6743,-125.6667,-2.0295,Actual,,Calculated,75.0900,Calculated,1,13
BaySys,Amundsen,2008-07-17,12:12:05,300034012815320,74.6734,-125.7101,-3.3305,Actual,,Calculated,72.9600,Calculated,1,10
BaySys,Amundsen,2008-07-17,14:11:40,300034012815320,74.6705,-125.7195,-5.1336,Actual,,Calculated,160.6600,Calculated,1,9
BaySys,Amundsen,2008-07-17,16:11:50,300034012815320,74.6601,-125.7110,-11.7365,Actual,,Calculated,163.7700,Calculated,1,8
BaySys,Amundsen,2008-07-17,18:12:35,300034012815320,74.6443,-125.7151,-2.6895,Actual,,Calculated,192.4100,Calculated,1,10
BaySys,Amundsen,2008-07-17,20:12:10,300034012815320,74.6274,-125.7398,-11.3341,Actual,,Calculated,205.5500,Calculated,1,11
BaySys,Amundsen,2008-07-17,22:11:56,300034012815320,74.6129,-125.7776,-11.6664,Actual,,Calculated,225.8000,Calculated,1,9
BaySys,Amundsen,2008-07-18,00:12:29,300034012815320,74.6023,-125.8209,-14.5223,Actual,,Calculated,33.1200,Calculated,1,10
BaySys,Amundsen,2008-07-18,02:11:53,300034012815320,74.5938,-125.8464,-2.7589,Actual,,Calculated,226.3400,Calculated,1,8
BaySys,Amundsen,2008-07-18,04:12:18,300034012815320,74.5832,-125.8487,2.1658,Actual,,Calculated,184.8900,Calculated,1,8
BaySys,Amundsen,2008-07-18,06:12:35,300034012815320,74.5681,-125.8420,-0.8939,Actual,,Calculated,178.0900,Calculated,1,9
BaySys,Amundsen,2008-07-18,08:12:29,300034012815320,74.5497,-125.8515,-3.3086,Actual,,Calculated,186.1700,Calculated,1,10
BaySys,Amundsen,2008-07-18,10:11:57,300034012815320,74.5325,-125.8840,-4.6089,Actual,,Calculated,215.9200,Calculated,1,6
BaySys,Amundsen,2008-07-18,12:12:35,300034012815320,74.5178,-125.9183,2.0534,Actual,,Calculated,165.8300,Calculated,1,9
BaySys,Amundsen,2008-07-18,14:12:26,300034012815320,74.5053,-125.9357,-5.5351,Actual,,Calculated,186.3500,Calculated,1,9
BaySys,Amundsen,2008-07-18,16:12:07,300034012815320,74.4934,-125.9358,-22.8654,Actual,,Calculated,223.4100,Calculated,1,6
BaySys,Amundsen,2008-07-18,18:12:35,300034012815320,74.4818,-125.9315,-3.4879,Actual,,Calculated,169.9900,Calculated,1,10
BaySys,Amundsen,2008-07-18,20:12:12,300034012815320,74.4699,-125.9276,-10.7832,Actual,,Calculated,174.9500,Calculated,1,10
BaySys,Amundsen,2008-07-18,22:12:35,300034012815320,74.4573,-125.9315,-13.8686,Actual,,Calculated,193.2800,Calculated,1,6
BaySys,Amundsen,2008-07-19,00:12:35,300034012815320,74.4443,-125.9403,-5.4509,Actual,,Calculated,98.3600,Calculated,1,10
BaySys,Amundsen,2008-07-19,02:12:35,300034012815320,74.4312,-125.9487,1.2949,Actual,,Calculated,52.4800,Calculated,1,6
BaySys,Amundsen,2008-07-19,04:12:53,300034012815320,74.4210,-125.9573,-4.8104,Actual,,Calculated,52.7000,Calculated,1,7
BaySys,Amundsen,2008-07-19,06:12:59,300034012815320,74.4143,-125.9644,1.3585,Actual,,Calculated,209.5600,Calculated,1,10
BaySys,Amundsen,2008-07-19,08:12:41,300034012815320,74.4072,-125.9716,-17.7675,Actual,,Calculated,206.3700,Calculated,1,9
BaySys,Amundsen,2008-07-19,10:12:29,300034012815320,74.3989,-125.9865,-2.2900,Actual,,Calculated,231.5100,Calculated,1,9
BaySys,Amundsen,2008-07-19,12:12:59,300034012815320,74.3886,-126.0093,4.7837,Actual,,Calculated,140.3600,Calculated,1,10
BaySys,Amundsen,2008-07-19,16:13:05,300034012815320,74.3722,-126.0627,-9.2308,Actual,,Calculated,233.6100,Calculated,1,9
BaySys,Amundsen,2008-07-19,18:13:05,300034012815320,74.3684,-126.0832,0.0512,Actual,,Calculated,239.3400,Calculated,1,10
BaySys,Amundsen,2008-07-19,20:13:05,300034012815320,74.3654,-126.0989,-5.9761,Actual,,Calculated,219.5400,Calculated,1,13
BaySys,Amundsen,2008-07-19,22:12:41,300034012815320,74.3608,-126.1138,-8.1919,Actual,,Calculated,263.4500,Calculated,1,13
BaySys,Amundsen,2008-07-20,00:12:39,300034012815320,74.3525,-126.1355,-6.1974,Actual,,Calculated,235.8200,Calculated,1,9
BaySys,Amundsen,2008-07-20,02:13:05,300034012815320,74.3437,-126.1713,-5.2907,Actual,,Calculated,2.8200,Calculated,1,7
BaySys,Amundsen,2008-07-20,04:13:29,300034012815320,74.3380,-126.2155,-21.8291,Actual,,Calculated,253.6800,Calculated,1,9
BaySys,Amundsen,2008-07-20,06:13:12,300034012815320,74.3372,-126.2665,0.4575,Actual,,Calculated,276.7600,Calculated,1,8
BaySys,Amundsen,2008-07-20,08:13:29,300034012815320,74.3407,-126.3189,-16.4650,Actual,,Calculated,293.3700,Calculated,1,10
BaySys,Amundsen,2008-07-20,10:13:12,300034012815320,74.3456,-126.3726,-2.8276,Actual,,Calculated,286.3300,Calculated,1,12
BaySys,Amundsen,2008-07-20,12:12:58,300034012815320,74.3508,-126.4305,1.2999,Actual,,Calculated,276.5500,Calculated,1,7
BaySys,Amundsen,2008-07-20,14:12:59,300034012815320,74.3569,-126.4932,-6.0155,Actual,,Calculated,272.3700,Calculated,1,7
BaySys,Amundsen,2008-07-20,16:13:02,300034012815320,74.3650,-126.5554,-6.8871,Actual,,Calculated,297.8800,Calculated,1,8
BaySys,Amundsen,2008-07-20,18:13:13,300034012815320,74.3745,-126.6132,1.6210,Actual,,Calculated,301.2800,Calculated,1,10
BaySys,Amundsen,2008-07-20,20:13:00,300034012815320,74.3839,-126.6734,21.0656,Actual,,Calculated,295.7600,Calculated,1,8
BaySys,Amundsen,2008-07-20,22:13:35,300034012815320,74.3928,-126.7430,1.1728,Actual,,Calculated,91.4000,Calculated,1,9
BaySys,Amundsen,2008-07-21,00:13:35,300034012815320,74.4032,-126.8221,-5.2989,Actual,,Calculated,201.4600,Calculated,1,9
BaySys,Amundsen,2008-07-21,02:13:53,300034012815320,74.4155,-126.9069,-2.7405,Actual,,Calculated,300.5300,Calculated,1,7
BaySys,Amundsen,2008-07-21,04:13:07,300034012815320,74.4310,-126.9886,4.6339,Actual,,Calculated,314.4400,Calculated,1,7
BaySys,Amundsen,2008-07-21,06:13:04,300034012815320,74.4478,-127.0618,-5.2302,Actual,,Calculated,311.0300,Calculated,1,8
BaySys,Amundsen,2008-07-21,08:13:12,300034012815320,74.4615,-127.1406,-11.5880,Actual,,Calculated,303.4700,Calculated,1,8
BaySys,Amundsen,2008-07-21,10:13:07,300034012815320,74.4716,-127.2459,-4.5609,Actual,,Calculated,293.8700,Calculated,1,7
BaySys,Amundsen,2008-07-21,12:13:08,300034012815320,74.4841,-127.3888,-0.7749,Actual,,Calculated,289.8100,Calculated,1,7
BaySys,Amundsen,2008-07-21,14:13:35,300034012815320,74.5052,-127.5443,-2.0990,Actual,,Calculated,302.1200,Calculated,1,7
BaySys,Amundsen,2008-07-21,16:13:12,300034012815320,74.5294,-127.6795,-5.2730,Actual,,Calculated,315.9400,Calculated,1,8
BaySys,Amundsen,2008-07-21,18:13:35,300034012815320,74.5525,-127.7698,3.3342,Actual,,Calculated,319.9500,Calculated,1,9
BaySys,Amundsen,2008-07-21,20:13:16,300034012815320,74.5693,-127.8192,3.3398,Actual,,Calculated,300.0100,Calculated,1,11
BaySys,Amundsen,2008-07-21,22:13:16,300034012815320,74.5758,-127.8653,-2.4827,Actual,,Calculated,316.3200,Calculated,1,7
BaySys,Amundsen,2008-07-22,00:13:35,300034012815320,74.5779,-127.9324,-15.4116,Actual,,Calculated,214.0300,Calculated,1,9